| time (UTC) | temp F | wind direction | speed knots | gust knots | rain 1hr in | rain 24hr in | rain mn in | humidity % | barometer mb |
| 20260503060104 | 41 | 146 | 0.9 | 2.6 | 0.00 | 0.00 | 0.00 | 82 | 1016.6 |
| 20260503054547 | 43 | 0 | 0.9 | 2.6 | 0.00 | 0.00 | 0.00 | 79 | 1016.6 |
| 20260503054536 | 43 | 137 | 0.9 | 2.6 | 0.00 | 0.00 | 0.00 | 79 | 1014.4 |
| 20260503053045 | 43 | 117 | 0.0 | 2.6 | 0.00 | 0.00 | 0.00 | 78 | 1016.6 |
| 20260503053034 | 43 | 117 | 0.0 | 2.6 | 0.00 | 0.00 | 0.00 | 78 | 1014.4 |
| 20260503051543 | 44 | 121 | 0.9 | 2.6 | 0.00 | 0.00 | 0.00 | 76 | 1016.6 |
| 20260503051532 | 44 | 121 | 0.0 | 2.6 | 0.00 | 0.00 | 0.00 | 77 | 1014.4 |
| 20260503050050 | 44 | 132 | 1.7 | 2.6 | 0.00 | 0.00 | 0.00 | 77 | 1016.7 |
| 20260503050028 | 44 | 132 | 1.7 | 2.6 | 0.00 | 0.00 | 0.00 | 77 | 1014.3 |
| 20260503044551 | 45 | 107 | 0.0 | 1.7 | 0.00 | 0.00 | 0.00 | 74 | 1016.7 |
| 20260503044527 | 45 | 107 | 0.0 | 1.7 | 0.00 | 0.00 | 0.00 | 75 | 1014.3 |
| 20260503043053 | 46 | 0 | 0.0 | 1.7 | 0.00 | 0.00 | 0.00 | 72 | 1016.7 |
| 20260503043020 | 46 | 107 | 0.0 | 1.7 | 0.00 | 0.00 | 0.00 | 72 | 1014.3 |
| 20260503041547 | 47 | 107 | 0.0 | 0.9 | 0.00 | 0.00 | 0.00 | 71 | 1016.6 |
| 20260503041516 | 47 | 107 | 0.0 | 0.9 | 0.00 | 0.00 | 0.00 | 71 | 1014.3 |
| 20260503040047 | 48 | 0 | 0.0 | 2.6 | 0.00 | 0.00 | 0.00 | 68 | 1016.5 |
| 20260503040010 | 48 | 107 | 0.9 | 2.6 | 0.00 | 0.00 | 0.00 | 69 | 1014.1 |
| 20260503034544 | 49 | 80 | 0.0 | 1.7 | 0.00 | 0.00 | 0.00 | 68 | 1016.4 |
| 20260503034504 | 49 | 80 | 0.0 | 1.7 | 0.00 | 0.00 | 0.00 | 69 | 1014.0 |
| 20260503033108 | 51 | 80 | 0.0 | 2.6 | 0.00 | 0.00 | 0.00 | 65 | 1014.0 |
| 20260503033103 | 51 | 80 | 0.0 | 2.6 | 0.00 | 0.00 | 0.00 | 65 | 1016.4 |
| 20260503031604 | 52 | 119 | 0.9 | 2.6 | 0.00 | 0.00 | 0.00 | 62 | 1013.8 |
| 20260503031548 | 53 | 119 | 0.9 | 2.6 | 0.00 | 0.00 | 0.00 | 60 | 1016.1 |
| 20260503030051 | 55 | 74 | 0.9 | 1.7 | 0.00 | 0.00 | 0.00 | 56 | 1013.7 |
| 20260503030047 | 56 | 74 | 0.9 | 1.7 | 0.00 | 0.00 | 0.00 | 55 | 1015.8 |
| 20260503024551 | 57 | 30 | 0.0 | 0.9 | 0.00 | 0.00 | 0.00 | 51 | 1013.5 |
| 20260503024548 | 57 | 0 | 0.0 | 1.7 | 0.00 | 0.00 | 0.00 | 50 | 1015.7 |
| 20260503023055 | 58 | 5 | 0.0 | 2.6 | 0.00 | 0.00 | 0.00 | 49 | 1015.5 |
| 20260503023049 | 58 | 5 | 0.0 | 2.6 | 0.00 | 0.00 | 0.00 | 53 | 1013.4 |
| 20260503021551 | 62 | 48 | 0.9 | 3.5 | 0.00 | 0.00 | 0.00 | 41 | 1015.5 |
| 20260503021543 | 62 | 48 | 0.9 | 3.5 | 0.00 | 0.00 | 0.00 | 42 | 1013.4 |
| 20260503020048 | 64 | 35 | 1.7 | 5.2 | 0.00 | 0.00 | 0.00 | 37 | 1015.4 |
| 20260503020032 | 64 | 35 | 1.7 | 5.2 | 0.00 | 0.00 | 0.00 | 37 | 1013.3 |
| 20260503014548 | 64 | 58 | 0.9 | 5.2 | 0.00 | 0.00 | 0.00 | 39 | 1015.5 |
| 20260503014526 | 64 | 58 | 0.9 | 5.2 | 0.00 | 0.00 | 0.00 | 39 | 1013.4 |
| 20260503013046 | 64 | 0 | 0.9 | 4.3 | 0.00 | 0.00 | 0.00 | 37 | 1015.5 |
| 20260503013028 | 64 | 32 | 0.9 | 3.5 | 0.00 | 0.00 | 0.00 | 38 | 1013.3 |
| 20260503011600 | 64 | 57 | 1.7 | 5.2 | 0.00 | 0.00 | 0.00 | 37 | 1015.5 |
| 20260503011526 | 64 | 58 | 1.7 | 5.2 | 0.00 | 0.00 | 0.00 | 37 | 1013.3 |
| 20260503010054 | 65 | 21 | 2.6 | 8.7 | 0.00 | 0.00 | 0.00 | 35 | 1015.7 |
| 20260503010026 | 65 | 355 | 3.5 | 7.8 | 0.00 | 0.00 | 0.00 | 35 | 1013.3 |
| 20260503004543 | 66 | 21 | 2.6 | 7.0 | 0.00 | 0.00 | 0.00 | 33 | 1015.5 |
| 20260503004509 | 66 | 360 | 2.6 | 7.0 | 0.00 | 0.00 | 0.00 | 33 | 1013.2 |
| 20260503003107 | 67 | 34 | 4.3 | 10.4 | 0.00 | 0.00 | 0.00 | 33 | 1013.2 |
| 20260503003058 | 67 | 49 | 4.3 | 10.4 | 0.00 | 0.00 | 0.00 | 32 | 1015.5 |
| 20260503003003 | 67 | 41 | 5.2 | 10.4 | 0.00 | 0.00 | 0.00 | 33 | 1013.2 |
| 20260503001552 | 67 | 74 | 2.6 | 8.7 | 0.00 | 0.00 | 0.00 | 34 | 1013.3 |
| 20260503001546 | 67 | 83 | 2.6 | 11.3 | 0.00 | 0.00 | 0.00 | 32 | 1015.6 |
| 20260503000103 | 69 | 313 | 3.5 | 10.4 | 0.00 | 0.00 | 0.00 | 29 | 1015.5 |
| 20260503000100 | 69 | 291 | 4.3 | 10.4 | 0.00 | 0.00 | 0.00 | 30 | 1013.3 |
| 20260502234550 | 70 | 338 | 2.6 | 7.0 | 0.00 | 0.00 | 0.00 | 24 | 1013.3 |
| 20260502234548 | 70 | 328 | 2.6 | 7.0 | 0.00 | 0.00 | 0.00 | 24 | 1015.7 |
| 20260502233047 | 69 | 55 | 2.6 | 9.6 | 0.00 | 0.00 | 0.00 | 25 | 1015.9 |
| 20260502233045 | 69 | 336 | 2.6 | 9.6 | 0.00 | 0.00 | 0.00 | 25 | 1013.4 |
| 20260502231553 | 70 | 331 | 2.6 | 8.7 | 0.00 | 0.00 | 0.00 | 26 | 1016.0 |
| 20260502231544 | 70 | 315 | 2.6 | 8.7 | 0.00 | 0.00 | 0.00 | 27 | 1013.5 |
| 20260502230047 | 69 | 9 | 1.7 | 7.0 | 0.00 | 0.00 | 0.00 | 27 | 1016.3 |
| 20260502230036 | 69 | 355 | 1.7 | 7.0 | 0.00 | 0.00 | 0.00 | 28 | 1013.7 |
| 20260502224547 | 70 | 347 | 1.7 | 7.8 | 0.00 | 0.00 | 0.00 | 27 | 1016.4 |
| 20260502224506 | 70 | 234 | 2.6 | 7.8 | 0.00 | 0.00 | 0.00 | 28 | 1013.9 |
| 20260502223051 | 70 | 213 | 2.6 | 9.6 | 0.00 | 0.00 | 0.00 | 27 | 1016.6 |
| 20260502223010 | 70 | 294 | 2.6 | 8.7 | 0.00 | 0.00 | 0.00 | 28 | 1014.0 |
| 20260502221555 | 69 | 292 | 4.3 | 9.6 | 0.00 | 0.00 | 0.00 | 30 | 1014.3 |
| 20260502221548 | 69 | 352 | 5.2 | 9.6 | 0.00 | 0.00 | 0.00 | 30 | 1016.7 |
| 20260502220053 | 68 | 307 | 2.6 | 7.8 | 0.00 | 0.00 | 0.00 | 27 | 1014.4 |
| 20260502220051 | 68 | 283 | 2.6 | 7.8 | 0.00 | 0.00 | 0.00 | 25 | 1016.9 |
| 20260502214547 | 67 | 24 | 1.7 | 7.8 | 0.00 | 0.00 | 0.00 | 27 | 1014.6 |
| 20260502214544 | 67 | 48 | 1.7 | 7.8 | 0.00 | 0.00 | 0.00 | 27 | 1017.0 |
| 20260502213047 | 66 | 72 | 1.7 | 3.5 | 0.00 | 0.00 | 0.00 | 28 | 1017.2 |
| 20260502213038 | 66 | 20 | 1.7 | 3.5 | 0.00 | 0.00 | 0.00 | 28 | 1014.7 |
| 20260502211553 | 67 | 200 | 0.9 | 4.3 | 0.00 | 0.00 | 0.00 | 27 | 1017.3 |
| 20260502211547 | 67 | 198 | 0.9 | 2.6 | 0.00 | 0.00 | 0.00 | 27 | 1014.8 |
| 20260502210047 | 68 | 224 | 0.9 | 6.1 | 0.00 | 0.00 | 0.00 | 28 | 1017.4 |
| 20260502210033 | 68 | 244 | 0.9 | 4.3 | 0.00 | 0.00 | 0.00 | 28 | 1014.9 |
| 20260502204548 | 67 | 352 | 0.9 | 6.1 | 0.00 | 0.00 | 0.00 | 29 | 1017.5 |
| 20260502204528 | 67 | 340 | 1.7 | 6.1 | 0.00 | 0.00 | 0.00 | 29 | 1015.1 |
| 20260502203047 | 69 | 273 | 1.7 | 7.8 | 0.00 | 0.00 | 0.00 | 27 | 1017.6 |
| 20260502203020 | 69 | 287 | 2.6 | 7.8 | 0.00 | 0.00 | 0.00 | 27 | 1015.1 |
| 20260502201554 | 68 | 205 | 3.5 | 8.7 | 0.00 | 0.00 | 0.00 | 28 | 1015.3 |
| 20260502201548 | 68 | 292 | 3.5 | 8.7 | 0.00 | 0.00 | 0.00 | 27 | 1017.8 |
| 20260502200047 | 66 | 30 | 2.6 | 7.8 | 0.00 | 0.00 | 0.00 | 30 | 1017.9 |
| 20260502200043 | 66 | 25 | 1.7 | 7.8 | 0.00 | 0.00 | 0.00 | 30 | 1015.4 |
| 20260502194549 | 65 | 326 | 0.9 | 7.8 | 0.00 | 0.00 | 0.00 | 28 | 1018.3 |
| 20260502194532 | 65 | 326 | 0.9 | 7.8 | 0.00 | 0.00 | 0.00 | 29 | 1015.8 |
| 20260502193046 | 67 | 30 | 2.6 | 7.0 | 0.00 | 0.00 | 0.00 | 28 | 1018.5 |
| 20260502193006 | 67 | 31 | 2.6 | 5.2 | 0.00 | 0.00 | 0.00 | 29 | 1016.0 |
| 20260502191555 | 65 | 213 | 0.9 | 7.0 | 0.00 | 0.00 | 0.00 | 31 | 1018.5 |
| 20260502191539 | 65 | 212 | 1.7 | 5.2 | 0.00 | 0.00 | 0.00 | 31 | 1016.1 |
| 20260502190047 | 64 | 0 | 0.9 | 4.3 | 0.00 | 0.00 | 0.00 | 32 | 1018.7 |
| 20260502190036 | 64 | 166 | 0.9 | 4.3 | 0.00 | 0.00 | 0.00 | 32 | 1016.4 |
| 20260502184547 | 64 | 28 | 2.6 | 7.0 | 0.00 | 0.00 | 0.00 | 30 | 1018.7 |
| 20260502184526 | 64 | 52 | 2.6 | 5.2 | 0.00 | 0.00 | 0.00 | 35 | 1016.4 |
| 20260502183049 | 63 | 355 | 0.9 | 3.5 | 0.00 | 0.00 | 0.00 | 39 | 1016.7 |
| 20260502183046 | 63 | 360 | 0.9 | 7.0 | 0.00 | 0.00 | 0.00 | 38 | 1018.9 |
| 20260502181550 | 63 | 360 | 1.7 | 7.0 | 0.00 | 0.00 | 0.00 | 39 | 1019.1 |
| 20260502181533 | 63 | 26 | 2.6 | 7.0 | 0.00 | 0.00 | 0.00 | 40 | 1016.9 |
| 20260502163057 | 58 | 55 | 4.3 | 9.6 | 0.00 | 0.00 | 0.00 | 46 | 1019.6 |
| 20260502163035 | 58 | 58 | 4.3 | 9.6 | 0.00 | 0.00 | 0.00 | 46 | 1017.3 |
| 20260502161549 | 58 | 9 | 2.6 | 7.8 | 0.00 | 0.00 | 0.00 | 48 | 1019.5 |
| 20260502161536 | 58 | 9 | 2.6 | 7.8 | 0.00 | 0.00 | 0.00 | 48 | 1017.3 |
| 20260502151549 | 55 | 336 | 0.9 | 4.3 | 0.00 | 0.00 | 0.00 | 55 | 1019.5 |
| 20260502151503 | 55 | 345 | 0.9 | 4.3 | 0.00 | 0.00 | 0.00 | 56 | 1017.4 |
| 20260502150107 | 50 | 26 | 0.0 | 1.7 | 0.00 | 0.00 | 0.00 | 69 | 1017.5 |
| 20260502123056 | 35 | 0 | 0.0 | 2.6 | 0.00 | 0.00 | 0.00 | 89 | 1019.2 |
| 20260502121545 | 34 | 55 | 0.0 | 3.5 | 0.00 | 0.00 | 0.00 | 90 | 1019.2 |
| 20260502121523 | 34 | 45 | 0.0 | 2.6 | 0.00 | 0.00 | 0.00 | 90 | 1017.5 |
| 20260502114544 | 35 | 0 | 0.0 | 2.6 | 0.00 | 0.00 | 0.00 | 89 | 1019.4 |
| 20260502114541 | 35 | 173 | 0.0 | 2.6 | 0.00 | 0.00 | 0.00 | 89 | 1017.4 |
| 20260502113046 | 35 | 110 | 0.0 | 1.7 | 0.00 | 0.00 | 0.00 | 88 | 1019.3 |
| 20260502113041 | 35 | 110 | 0.0 | 1.7 | 0.00 | 0.00 | 0.00 | 88 | 1017.6 |
| 20260502111551 | 35 | 0 | 0.0 | 1.7 | 0.00 | 0.00 | 0.00 | 87 | 1019.1 |
| 20260502111504 | 35 | 110 | 0.0 | 1.7 | 0.00 | 0.00 | 0.00 | 87 | 1017.5 |
| 20260502110046 | 35 | 0 | 0.9 | 1.7 | 0.00 | 0.00 | 0.00 | 87 | 1018.9 |
| 20260502110028 | 35 | 110 | 0.9 | 1.7 | 0.00 | 0.00 | 0.00 | 88 | 1017.3 |
| 20260502104546 | 34 | 110 | 0.0 | 1.7 | 0.00 | 0.00 | 0.00 | 88 | 1018.9 |
| 20260502104520 | 34 | 110 | 0.9 | 1.7 | 0.00 | 0.00 | 0.00 | 89 | 1017.2 |
| 20260502103050 | 35 | 110 | 0.0 | 0.9 | 0.00 | 0.00 | 0.00 | 88 | 1017.1 |
| 20260502103045 | 35 | 0 | 0.0 | 0.9 | 0.00 | 0.00 | 0.00 | 87 | 1018.8 |
| 20260502101548 | 35 | 0 | 0.0 | 1.7 | 0.00 | 0.00 | 0.00 | 88 | 1018.6 |
| 20260502080103 | 40 | 110 | 0.9 | 1.7 | 0.00 | 0.00 | 0.00 | 76 | 1018.7 |
| 20260502071522 | 41 | 110 | 0.9 | 1.7 | 0.00 | 0.00 | 0.00 | 74 | 1017.2 |
| 20260502070047 | 42 | 110 | 0.9 | 1.7 | 0.00 | 0.00 | 0.00 | 72 | 1018.7 |
| 20260502070020 | 42 | 110 | 0.9 | 1.7 | 0.00 | 0.00 | 0.00 | 72 | 1017.2 |
| 20260502064551 | 43 | 110 | 0.0 | 1.7 | 0.00 | 0.00 | 0.00 | 70 | 1017.2 |
| 20260502064548 | 43 | 110 | 0.0 | 1.7 | 0.00 | 0.00 | 0.00 | 69 | 1018.6 |
| 20260502063102 | 43 | 110 | 0.0 | 1.7 | 0.00 | 0.00 | 0.00 | 72 | 1017.0 |
| 20260502063100 | 43 | 110 | 0.0 | 2.6 | 0.00 | 0.00 | 0.00 | 71 | 1018.5 |
| 20260502061550 | 42 | 110 | 0.0 | 1.7 | 0.00 | 0.00 | 0.00 | 72 | 1018.5 |
| 20260502061525 | 42 | 110 | 0.0 | 1.7 | 0.00 | 0.00 | 0.00 | 73 | 1017.0 |